Location: Unspecified
(36.0237°N, 0.0000°E)
Time: 23:20:54
(UTC+00:00)

ROCSAT 2 - Visible Passes

Search period start: 04 April 2026 00:00
Search period end: 14 April 2026 00:00
Orbit: 889 x 890 km, 98.8° (Epoch: 28 March)

Date Brightness Start Highest point End Pass type
(mag) Time Alt. Az. Time Alt. Az. Time Alt. Az.
4 Apr 6.1 03:30:21 10° NNE 03:36:02 66° ESE 03:39:02 29° S visible
4 Apr 7.4 05:13:33 10° NNW 05:16:54 16° WNW 05:20:14 10° W visible
5 Apr 6.1 03:29:52 10° NNE 03:35:33 65° ESE 03:38:40 27° S visible
5 Apr 7.4 05:13:03 10° NNW 05:16:25 16° WNW 05:19:47 10° W visible
6 Apr 6.1 03:29:23 10° NNE 03:35:03 65° E 03:38:19 26° S visible
6 Apr 7.4 05:12:31 10° NNW 05:15:56 16° WNW 05:19:20 10° W visible
7 Apr 6.1 03:28:54 10° NNE 03:34:34 64° ESE 03:37:57 25° S visible
7 Apr 7.4 05:12:01 10° NNW 05:15:27 17° WNW 05:18:52 10° W visible
8 Apr 6.1 03:28:24 10° NNE 03:34:05 64° ESE 03:37:34 24° S visible
8 Apr 7.4 05:11:30 10° NNW 05:14:58 17° WNW 05:18:25 10° W visible
9 Apr 6.1 03:27:55 10° NNE 03:33:35 63° ESE 03:37:12 23° S visible
10 Apr 6.2 03:27:26 10° NNE 03:33:06 62° ESE 03:36:50 22° S visible
11 Apr 6.2 03:26:56 10° NNE 03:32:35 62° E 03:36:27 21° S visible
12 Apr 6.2 03:26:27 10° NNE 03:32:06 61° ESE 03:36:04 20° S visible
13 Apr 6.2 03:25:57 10° NNE 03:31:36 61° E 03:35:41 19° S visible
